Regional Weather Roundup
Issued by NWS

Home | Current Version | Previous Version | Text Only | Print | Product List | Glossary Off
Versions: 1 2 3 4 5 6 7 8 9 10 11 12 13 14 15 16 17 18 19 20 21 22 23 24 25 26 27 28 29 30 31 32 33 34 35 36 37 38 39 40 41 42 43 44 45 46 47 48 49 50

000
ASUS43 KMKX 021011
RWRWI

WISCONSIN REGIONAL WEATHER ROUNDUP
NATIONAL WEATHER SERVICE MILWAUKEE/SULLIVAN WI
500 AM CDT THU OCT 02 2014

NOTE: "FAIR" INDICATES FEW OR NO CLOUDS BELOW 12,000 FEET WITH NO
SIGNIFICANT WEATHER AND/OR OBSTRUCTIONS TO VISIBILITY.

WIZ001-002-006>008-014>016-023>028-021100-
NORTHWEST WISCONSIN

CITY           SKY/WX    TMP DP  RH WIND       PRES   REMARKS
SUPERIOR ARPT  CLOUDY    53  53 100 CALM      29.83S FOG
ASHLAND        CLOUDY    55  54  96 CALM      29.84S FOG
HAYWARD        FOG       55  55 100 CALM      29.84F VSB 1
SIREN          FOG       55  55  99 CALM      29.84F VSB 1
CUMBERLAND     CLOUDY    54  52  94 CALM      29.84F FOG
RICE LAKE      CLOUDY    55  54  95 CALM      29.86R FOG
CHETEK         CLOUDY    55  55  99 CALM      29.84S FOG
LADYSMITH      CLOUDY    53  52  97 CALM      29.87R FOG
EAU CLAIRE     CLOUDY    56  54  93 CALM      29.83S FOG
MENOMONIE      CLOUDY    56  55  97 CALM      29.84S FOG
NEW RICHMOND   CLOUDY    55  55 100 CALM      29.84S FOG
OSCEOLA        FOG       56  56 100 CALM      29.86S VSB 1
$$

WIZ003>005-009-010-017-018-021100-
NORTH CENTRAL WISCONSIN

CITY           SKY/WX    TMP DP  RH WIND       PRES   REMARKS
MANITOWISH WTR CLOUDY    53  53 100 S5        29.86S FOG
ARBOR VITAE    CLOUDY    55  53  93 S3        29.86S FOG
WOODRUFF       CLOUDY    55  53  93 S3        29.86S FOG
RHINELANDER    FOG       47  47 100 CALM      29.87S VSB<1/4
EAGLE RIVER    CLOUDY    52  52 100 CALM      29.86F FOG
LAND O LAKES   CLOUDY    54  53  97 CALM      29.87S FOG
PHILLIPS       CLOUDY    50  50 100 CALM      29.85S FOG
TOMAHAWK       MOCLDY    45  44  97 CALM      29.86S FOG
MEDFORD        CLOUDY    53  52  97 E3        29.85S FOG
MERRILL        CLOUDY    54  54  99 CALM      29.86R FOG
$$

WIZ029-030-035-036-043>047-021100-
CENTRAL WISCONSIN

CITY           SKY/WX    TMP DP  RH WIND       PRES   REMARKS
WAUSAU         CLOUDY    55  53  93 E5        29.84F
MOSINEE        CLOUDY    54  54 100 CALM      29.86S FOG
MARSHFIELD     CLOUDY    56  54  93 NE3       29.85R
STEVENS POINT  PTCLDY    52  52  99 CALM      29.85S FOG
WAUPACA        CLOUDY    57  56  96 CALM      29.84F FOG
WAUTOMA        NOT AVBL
WISC RAPIDS    PTCLDY    54  53  97 CALM      29.85S
CAMP DOUGLAS   MOCLDY    50  50 100 CALM      29.83R FOG
$$

WIZ011>013-019>022-031-037>040-048>050-021100-
NORTHEAST WISCONSIN

CITY           SKY/WX    TMP DP  RH WIND       PRES   REMARKS
ANTIGO         CLOUDY    52  52  99 CALM      29.86S FOG
SHAWANO        CLOUDY    57  55  92 CALM      29.86S FOG
OCONTO         CLOUDY    56  56 100 SE5       29.86S
STURGEON BAY   NOT AVBL
GREEN BAY      CLOUDY    57  56  96 E5        29.85F FOG
MANITOWOC      NOT AVBL
APPLETON       MOCLDY    55  54  94 NE3       29.85S FOG
CLINTONVILLE   CLOUDY    54  54 100 CALM      29.85S FOG
OSHKOSH        MOCLDY    56  55  97 SE3       29.84S FOG
$$

WIZ032>034-041-042-053>061-021100-
SOUTHWEST WISCONSIN

CITY           SKY/WX    TMP DP  RH WIND       PRES   REMARKS
LA CROSSE      CLOUDY    59  56  89 CALM      29.82S
SPARTA         MOCLDY    54  54 100 CALM      29.84R FOG
VIROQUA        CLOUDY    58  58 100 CALM      29.83R VSB 3/4
BOSCOBEL       MOCLDY    59  57  93 CALM      29.81S FOG
PRAIRIE DU CHI PTCLDY    59  57  91 CALM      29.80S FOG
PLATTEVILLE    CLOUDY    61  59  91 CALM      29.83S
$$

WIZ056-057-062-063-064-067-068-021100-
SOUTH CENTRAL WISCONSIN

CITY           SKY/WX    TMP DP  RH WIND       PRES   REMARKS
REEDSBURG      CLOUDY    58  56  92 CALM      29.82S
BARABOO/DELLS  CLOUDY    59  55  85 SE3       29.82S
LONE ROCK      CLOUDY    63  57  81 E5        29.82S
MINERAL POINT  CLOUDY    59  55  88 SE3       29.82F
MADISON        CLOUDY    60  56  86 MISG      29.83S
MIDDLETON      CLOUDY    57  56  94 CALM      29.83F
WATERTOWN      CLOUDY    60  58  92 CALM      29.83S
MONROE         CLOUDY    63  57  82 SE3       29.83R
JANESVILLE     CLOUDY    64  55  72 SE6       29.83S
$$

WIZ051-052-058>065-066-070>072-021100-
SOUTHEAST WISCONSIN

CITY           SKY/WX    TMP DP  RH WIND       PRES   REMARKS
MILWAUKEE      CLOUDY    62  56  80 SE5       29.85F
WAUKESHA       CLOUDY    59  55  88 E5        29.86S
MILWAUKEE/TIMM CLOUDY    59  55  88 E3        29.86S FOG
RACINE         CLOUDY    62  56  80 S10       29.87S
BURLINGTON     CLOUDY    57  56  95 CALM      29.84F
KENOSHA        NOT AVBL
FOND DU LAC    CLOUDY    57  55  93 S3        29.84F
SHEBOYGAN      CLOUDY    59  56  89 S3        29.86S
WEST BEND      CLOUDY    59  55  88 CALM      29.85S FOG
JUNEAU         CLOUDY    60  55  84 SE3       29.86R
$$

LSZ147-162-021100-
LAKE SUPERIOR

STATION/POSITION TIME  TEMP    WIND        PRES    WAVE
                       AIR SEA DIR/SP/G            HT/PER
                 (UTC) (F)     (DEG/KT/KT) (MB)    (FT/S)
W MID LAKE BUOY  0950   52 49  220/  4/  6 1010.3R   0
DEVILS ISLAND    1000   54     230/  5/  6 1010.6R
SAXON HARBOR     0900   54        CALM     1010.5S
$$

LMZ867-665-643>646-021100-
LAKE MICHIGAN

STATION/POSITION TIME  TEMP    WIND        PRES    WAVE
                       AIR SEA DIR/SP/G            HT/PER
                 (UTC) (F)     (DEG/KT/KT) (MB)    (FT/S)
CHAMBERS ISLAND  0900   56     130/  2/  4 1012.2F
S GREEN BAY BUOY 1000   58                 1012.3
N MID LAKE BUOY  0950   57 58  130/  8/ 10 1012.8F   2/ 5
NORTHPORT PIER   0900   57     150/  9/ 11 1012.2S
SISTER BAY       0942          150/  9/ 13   N/A
KEWAUNEE LAKESHO 0900   56     160/  7/  9 1010.9F
SHEBOYGAN LAKESH 1000   58 56  150/ 12/ 13 1011.2F
PORT WASHINGTON  0940   58     170/  6/  8 1011.5F
ATWATER BUOY     1000   60     130/  6/  8 1012.3F
MILWAUKEE LAKESH 0900   61     130/  4/  5   N/A
S MID LAKE BUOY  0950   63 62  150/ 17/ 19 1011.5F   4/ 5
KENOSHA   LAKESH 1000   62     170/ 11/ 13 1010.8S
$$

TC  - TEMPERATURE IN CELSIUS
VSB - VISIBILITY IN STATUTE MILES
WCI - WIND CHILL INDEX
HX  - HEAT INDEX



USA.gov is the U.S. government's official web portal to all federal, state and local government web resources and services.